Regional Weather Roundup
Issued by NWS

Home | Current Version | Previous Version | Graphics & Text | Print | Product List | Glossary Off
Versions: 1 2 3 4 5 6 7 8 9 10 11 12 13 14 15 16 17 18 19 20 21 22 23 24 25 26 27 28 29 30 31 32 33 34 35 36 37 38 39 40 41 42 43 44 45 46 47 48 49 50

000
ASUS43 KMKX 310700
RWRWI

WISCONSIN REGIONAL WEATHER ROUNDUP
NATIONAL WEATHER SERVICE MILWAUKEE/SULLIVAN WI
200 AM CDT SUN JUL 31 2016

NOTE: "FAIR" INDICATES FEW OR NO CLOUDS BELOW 12,000 FEET WITH NO
SIGNIFICANT WEATHER AND/OR OBSTRUCTIONS TO VISIBILITY.

WIZ001-002-006>008-014>016-023>028-310800-
NORTHWEST WISCONSIN

CITY           SKY/WX    TMP DP  RH WIND       PRES   REMARKS
SUPERIOR ARPT  CLOUDY    62  62  98 E3        30.03S
ASHLAND        PTCLDY    59  58  96 CALM      30.05R
HAYWARD        PTCLDY    66  60  81 SE6       30.05S
SIREN          NOT AVBL
CUMBERLAND     PTCLDY    63  59  88 E5        30.05S
RICE LAKE      MOCLDY    65  61  87 E5        30.06S
CHETEK         PTCLDY    65  63  93 MISG      30.05S
LADYSMITH      MOCLDY    64  59  85 E3        30.08S
EAU CLAIRE     NOT AVBL
MENOMONIE      CLEAR     64  61  87 CALM      30.03S
NEW RICHMOND   CLEAR     65  63  94 E3        30.02S
OSCEOLA        CLEAR     65  65 100 CALM      30.03F
$$

WIZ003>005-009-010-017-018-310800-
NORTH CENTRAL WISCONSIN

CITY           SKY/WX    TMP DP  RH WIND       PRES   REMARKS
MANITOWISH WTR CLEAR     55  55 100 CALM      30.09S
ARBOR VITAE    CLEAR     57  55  92 CALM      30.10S
WOODRUFF       CLEAR     57  55  92 CALM      30.10S
RHINELANDER    CLEAR     53  51  93 CALM      30.10S
EAGLE RIVER    CLEAR     52  52  99 CALM      30.10R
LAND O LAKES   CLEAR     51  51  99 CALM      30.11S
PHILLIPS       MOCLDY    58  56  91 CALM      30.08S
TOMAHAWK       CLEAR     50  49  96 CALM      30.09S FOG
MEDFORD        CLEAR     57  55  94 SE3       30.08S
MERRILL          N/A     52  52 100 CALM      30.09S FOG
$$

WIZ029-030-035-036-043>047-310800-
CENTRAL WISCONSIN

CITY           SKY/WX    TMP DP  RH WIND       PRES   REMARKS
WAUSAU         CLEAR     57  54  89 CALM      30.06S
MOSINEE        CLEAR     59  52  77 E3        30.08S
MARSHFIELD     CLEAR     61  54  77 CALM      30.06S
STEVENS POINT  CLEAR     54  53  98 CALM      30.07S
WAUPACA        CLEAR     58  58  97 CALM      30.05F
WAUTOMA        CLEAR     57  55  93 CALM      30.06S
WISC RAPIDS    CLEAR     56  52  86 CALM      30.07S
CAMP DOUGLAS   CLEAR     55  55 100 N2        30.05R FOG
$$

WIZ011>013-019>022-031-037>040-048>050-310800-
NORTHEAST WISCONSIN

CITY           SKY/WX    TMP DP  RH WIND       PRES   REMARKS
ANTIGO         CLEAR     51  50  98 CALM      30.09S
SHAWANO        CLEAR     57  54  91 NW3       30.06S
OCONTO         CLEAR     58  58 100 CALM      30.04S
STURGEON BAY   CLEAR     61  58  90 CALM      30.04S
GREEN BAY      PTCLDY    57  57 100 NW3       30.03F
MANITOWOC      NOT AVBL
APPLETON       CLEAR     59  52  77 N6        30.03F
CLINTONVILLE   CLEAR     55  54  94 CALM      30.05F
OSHKOSH        CLEAR     59  55  87 CALM      30.03F
$$

WIZ032>034-041-042-053>061-310800-
SOUTHWEST WISCONSIN

CITY           SKY/WX    TMP DP  RH WIND       PRES   REMARKS
LA CROSSE      MOCLDY    67  62  84 E5        30.02F
SPARTA         CLEAR     58  58  97 CALM      30.05S
VIROQUA        CLEAR     62  60  93 S3        30.05F
BOSCOBEL       FOG       61  59  93 CALM      30.04S VSB 3/4
PRAIRIE DU CHI   N/A     64  62  92 CALM      30.03S
PLATTEVILLE    CLEAR     64  62  93 E6        30.05S
$$

WIZ056-057-062-063-064-067-068-310800-
SOUTH CENTRAL WISCONSIN

CITY           SKY/WX    TMP DP  RH WIND       PRES   REMARKS
REEDSBURG      CLEAR     59  59 100 CALM      30.05R
BARABOO/DELLS  CLEAR     58  55  89 CALM      30.05R
LONE ROCK      NOT AVBL
MINERAL POINT  CLEAR     64  59  82 SE3       30.06R
MADISON        CLEAR     58  56  93 CALM      30.04R
MIDDLETON      CLEAR     58  58  99 CALM      30.05S
WATERTOWN      CLEAR     58  58 100 CALM      30.03S
MONROE         CLEAR     63  59  88 E3        30.05R
JANESVILLE     PTCLDY    61  61 100 CALM      30.03S
$$

WIZ051-052-058>065-066-070>072-310800-
SOUTHEAST WISCONSIN

CITY           SKY/WX    TMP DP  RH WIND       PRES   REMARKS
MILWAUKEE      MOCLDY    68  65  90 N5        30.02S
WAUKESHA       CLEAR     59  57  94 CALM      30.04S
MILWAUKEE/TIMM CLEAR     63  59  88 CALM      30.03S
RACINE         MOCLDY    66  63  90 CALM      30.03S
BURLINGTON     CLEAR     56  55  96 CALM      30.03R
KENOSHA        MOCLDY    65  62  90 N5        30.02S
FOND DU LAC    PTCLDY    58  56  93 CALM      30.04S
SHEBOYGAN      CLEAR     58  56  93 CALM      30.03S
WEST BEND      CLEAR     57  55  94 CALM      30.03F
JUNEAU         CLEAR     59  56  90 CALM      30.05S
$$

LSZ147-162-310800-
LAKE SUPERIOR

STATION/POSITION TIME  TEMP    WIND        PRES    WAVE
                       AIR SEA DIR/SP/G            HT/PER
                 (UTC) (F)     (DEG/KT/KT) (MB)    (FT/S)
W MID LAKE BUOY  0550   65 62  130/  8/ 10 1016.4F   0
DEVILS ISLAND    0600   66      50/  6/  7 1016.9R
PORT WING        0600   59     170/  1/  2 1016.9S
SAXON HARBOR     0640   66     200/  4/  7 1016.9R
$$

LMZ867-665-643>646-310800-
LAKE MICHIGAN

STATION/POSITION TIME  TEMP    WIND        PRES    WAVE
                       AIR SEA DIR/SP/G            HT/PER
                 (UTC) (F)     (DEG/KT/KT) (MB)    (FT/S)
CHAMBERS ISLAND  0600   71      40/  8/ 10 1016.9F
S GREEN BAY BUOY 0500   71 71   30/  8/ 10 1016.9F
N MID LAKE BUOY  0550   70 70   80/ 10/ 12 1016.6F   2/ 4
NORTHPORT PIER   0600   69      40/  5/  7 1017.3S
SISTER BAY       0621   64        CALM       N/A
ALGOMA LAKESHORE 0613          320/  7/  8   N/A
KEWAUNEE LAKESHO 0600   62     300/  3/  4 1016.4F
SHEBOYGAN LAKESH 0600   66     340/  6/  7 1017.0S
PORT WASHINGTON  0600   66     310/  3/  4 1017.3S
ATWATER BUOY     0600   66 65  360/  8/ 10 1018.0F
MILWAUKEE LAKESH 0610   67     350/  6/  8   N/A
S MID LAKE BUOY  0550   71 73   90/ 10/ 12 1015.4F   2/ 4
KENOSHA   LAKESH 0600   71     100/  7/  8 1015.9S
$$

TC  - TEMPERATURE IN CELSIUS
VSB - VISIBILITY IN STATUTE MILES
WCI - WIND CHILL INDEX
HX  - HEAT INDEX





USA.gov is the U.S. government's official web portal to all federal, state and local government web resources and services.